User: anonymous   Login
Location: Unspecified
(0.0000°N, 0.0000°E)
Time: 09:19:36
(UTC+00:00)
Language:

NEE 01 PEGASUS - Orbit

View from above orbital plane
View from above orbital plane
View from above satellite
View from above satellite

Ground track
Ground track

The orbit data is extracted from the following two-line orbital elements,

1 39151U 13018B   17086.75223004 +.00000325 +00000-0 +50284-4 0  9990
2 39151 097.9828 178.7938 0016085 317.0870 042.9085 14.79668733211492
Epoch (UTC): 27 March 2017 18:03:12
Eccentricity: 0.0016085
inclination: 97.9828°
perigee height: 619 km
apogee height: 641 km
right ascension of ascending node: 178.7938°
argument of perigee: 317.0870°
revolutions per day: 14.79668733
mean anomaly at epoch: 42.9085°
orbit number at epoch: 21149

The dashed part of the orbit path shows where the satellite is in the earth's shadow,  

DLR